Location: Bad Salzschlirf
(50.3750°N, 9.3000°E)
Time: 05:35:24
(UTC+02:00)

ISS - Pass Details

Date: 28 March 2020
Orbit: 417 x 423 km, 51.6° (Epoch: 29 March)

Event Time Altitude Azimuth Distance (km) Brightness Sun altitude
Rises 21:29:43 0° 286° (WNW) 2,362 1.1 -24.1°
Reaches altitude 10° 21:31:50 10° 283° (WNW) 1,497 -0.1 -24.4°
Enters shadow 21:33:40 29° 272° (W) 802 -1.9 -24.6°
